Date String (YYYY-MM-DD hh:mm:ss) UTC,Instrument flags,absolute air pressure of the measurement (hPa),sample flow rate (lpm),inlet stack bypass flow (lpm),air temperature of the measurement (°C),ambient temperature measured by the external sensor (°C),aerosol sample conditioner tube jacket temperature (°C),OPC LED temperature (°C),internal box temperature (°C),relative humidity of the measurement (%),span deviation,mass concentration of particles derived from Lorenz-Mie calculation of OPC scattering (μg/m³),mass concentration of particles derived from Lorenz-Mie calculation of OPC scattering (μg/m³),mass concentration of particles derived from Lorenz-Mie calculation of OPC scattering (μg/m³)
DateTimeUTC,F1_M11,P_M11,Q1_M11,Q2_M11,T1_M11,T2_M11,T3_M11,T4_M11,T5_M11,U1_M11,ZSPAN_M11,X0_M11,X2_M11,X1_M11
2024-03-20 21:00:00,SystemResetWarning,0826.1,5.01,000.00,023.4,022.8,000.0,031.9,025.2,17.4,0000.0,0015.64,0006.62,0005.83
2024-03-20 21:01:00,SystemResetWarning,0826.1,5.00,000.00,023.4,022.8,000.0,031.9,025.2,17.4,0000.0,0015.17,0006.68,0005.83
2024-03-20 21:02:00,SystemResetWarning,0826.1,4.99,000.00,023.5,022.8,000.0,031.9,025.2,17.2,0000.0,0014.69,0006.70,0005.84
2024-03-20 21:03:00,SystemResetWarning,0826.1,4.99,000.00,023.5,022.8,000.0,031.9,025.2,16.5,0000.0,0014.31,0006.70,0005.84
2024-03-20 21:04:00,SystemResetWarning,0826.0,5.00,000.00,023.5,022.8,000.0,031.9,025.2,16.7,0000.0,0014.34,0006.69,0005.81
2024-03-20 21:05:00,SystemResetWarning,0826.0,5.00,000.00,023.5,022.8,000.0,031.9,025.3,17.4,0000.0,0015.12,0006.65,0005.76
2024-03-20 21:06:00,SystemResetWarning,0826.0,5.02,000.00,023.5,022.8,000.0,031.9,025.3,17.2,0000.0,0015.99,0006.63,0005.73
2024-03-20 21:07:00,SystemResetWarning,0825.9,5.00,000.00,023.5,022.8,000.0,031.9,025.3,17.0,0000.0,0015.31,0006.57,0005.69
2024-03-20 21:08:00,SystemResetWarning,0825.9,4.99,000.00,023.5,022.8,000.0,031.9,025.3,17.4,0000.0,0015.80,0006.51,0005.63
2024-03-20 21:09:00,SystemResetWarning,0825.9,4.99,000.00,023.5,022.8,000.0,031.9,025.3,16.7,0000.0,0014.94,0006.49,0005.60
2024-03-20 21:10:00,SystemResetWarning,0825.9,4.99,000.00,023.5,022.9,000.0,031.9,025.3,16.9,0000.0,0014.83,0006.49,0005.55
2024-03-20 21:11:00,SystemResetWarning,0825.9,5.00,000.00,023.5,022.9,000.0,031.9,025.3,16.8,0000.0,0014.97,0006.50,0005.53
2024-03-20 21:12:00,SystemResetWarning,0825.9,5.00,000.00,023.5,022.9,000.0,031.9,025.3,16.7,0000.0,0015.20,0006.51,0005.53
2024-03-20 21:13:00,SystemResetWarning,0825.9,5.00,000.00,023.5,022.9,000.0,032.0,025.3,17.2,0001.2,0015.73,0006.51,0005.52
2024-03-20 21:14:00,SystemResetWarning,0825.9,5.00,000.00,023.6,022.9,000.0,032.0,025.4,16.6,0002.3,0016.20,0006.50,0005.52
2024-03-20 21:15:00,SystemResetWarning,0825.9,5.00,000.00,023.6,022.9,000.0,032.0,025.4,16.5,0000.0,0016.60,0006.50,0005.52
2024-03-20 21:16:00,SystemResetWarning,0825.9,5.01,000.00,023.6,022.9,000.0,032.0,025.3,16.5,0005.6,0016.23,0006.48,0005.54
2024-03-20 21:17:00,SystemResetWarning,0825.9,5.00,000.00,023.6,022.9,000.0,032.0,025.4,16.9,0006.7,0015.53,0006.48,0005.52
2024-03-20 21:18:00,SystemResetWarning,0825.9,5.00,000.00,023.6,022.9,000.0,032.0,025.4,16.4,0005.7,0016.10,0006.47,0005.50
2024-03-20 21:19:00,SystemResetWarning,0825.9,5.00,000.00,023.6,022.9,000.0,032.0,025.4,16.8,0005.5,0015.36,0006.50,0005.52
2024-03-20 21:20:00,SystemResetWarning,0825.9,4.99,000.00,023.6,022.9,000.0,032.0,025.4,16.7,0005.5,0015.07,0006.47,0005.52
2024-03-20 21:21:00,SystemResetWarning,0825.9,5.00,000.00,023.6,022.9,000.0,032.0,025.4,16.6,0005.8,0014.83,0006.44,0005.53
2024-03-20 21:22:00,SystemResetWarning,0825.9,4.99,000.00,023.6,022.9,000.0,032.0,025.4,16.8,0004.5,0014.94,0006.47,0005.54
2024-03-20 21:23:00,SystemResetWarning,0825.9,5.00,000.00,023.6,022.9,000.0,032.0,025.4,16.8,0000.0,0016.48,0006.46,0005.55
2024-03-20 21:24:00,SystemResetWarning,0825.9,5.01,000.00,023.6,022.9,000.0,032.0,025.4,17.0,0000.0,0016.34,0006.41,0005.55
2024-03-20 21:25:00,SystemResetWarning,0825.9,5.00,000.00,023.6,022.9,000.0,032.0,025.4,17.0,0000.0,0015.87,0006.41,0005.55
2024-03-20 21:26:00,SystemResetWarning,0825.9,5.00,000.00,023.6,022.9,000.0,032.0,025.4,16.7,0000.0,0015.63,0006.40,0005.56
2024-03-20 21:27:00,SystemResetWarning,0825.9,4.99,000.00,023.6,022.9,000.0,032.0,025.4,16.5,0000.2,0015.08,0006.37,0005.56
2024-03-20 21:28:00,SystemResetWarning,0825.9,4.99,000.00,023.6,022.9,000.0,032.1,025.4,16.8,0003.0,0014.69,0006.36,0005.57
2024-03-20 21:29:00,SystemResetWarning,0825.9,5.00,000.00,023.6,022.9,000.0,032.1,025.4,17.1,0003.4,0015.16,0006.39,0005.58
2024-03-20 21:30:00,SystemResetWarning,0825.9,5.02,000.00,023.7,022.9,000.0,032.1,025.5,16.8,0000.0,0016.41,0006.37,0005.58
2024-03-20 21:31:00,SystemResetWarning,0825.9,5.00,000.00,023.7,022.9,000.0,032.1,025.5,17.0,0002.4,0017.08,0006.47,0005.61
2024-03-20 21:32:00,SystemResetWarning,0825.9,4.98,000.00,023.7,022.9,000.0,032.1,025.5,17.2,0003.4,0017.26,0006.50,0005.63
2024-03-20 21:33:00,SystemResetWarning,0825.9,5.01,000.00,023.7,023.0,000.0,032.1,025.5,16.9,0003.9,0017.19,0006.47,0005.64
2024-03-20 21:34:00,SystemResetWarning,0825.9,5.01,000.00,023.7,023.0,000.0,032.1,025.5,17.0,0003.8,0015.34,0006.48,0005.66
2024-03-20 21:35:00,SystemResetWarning,0825.9,4.99,000.00,023.7,023.0,000.0,032.1,025.5,17.1,0003.4,0015.17,0006.49,0005.65
2024-03-20 21:36:00,SystemResetWarning,0825.9,5.00,000.00,023.7,023.0,000.0,032.1,025.5,17.0,0003.9,0015.35,0006.54,0005.66
2024-03-20 21:37:00,SystemResetWarning,0825.9,4.99,000.00,023.7,023.0,000.0,032.1,025.5,17.3,0004.5,0015.16,0006.58,0005.66
2024-03-20 21:38:00,SystemResetWarning,0825.9,4.99,000.00,023.7,023.0,000.0,032.1,025.5,17.1,0005.2,0015.27,0006.62,0005.68
2024-03-20 21:39:00,SystemResetWarning,0825.9,5.01,000.00,023.7,023.0,000.0,032.1,025.5,17.3,0005.5,0015.53,0006.69,0005.70
2024-03-20 21:40:00,SystemResetWarning,0825.9,5.00,000.00,023.7,023.0,000.0,032.1,025.5,16.7,0005.3,0014.88,0006.70,0005.72
2024-03-20 21:41:00,SystemResetWarning,0825.9,5.01,000.00,023.7,023.0,000.0,032.2,025.5,16.9,0005.3,0014.08,0006.75,0005.73
2024-03-20 21:42:00,SystemResetWarning,0825.9,5.00,000.00,023.7,023.0,000.0,032.2,025.5,17.1,0005.5,0013.55,0006.74,0005.74
2024-03-20 21:43:00,SystemResetWarning,0825.9,5.01,000.00,023.7,023.0,000.0,032.2,025.5,17.0,0005.4,0014.09,0006.79,0005.76
2024-03-20 21:44:00,SystemResetWarning,0825.8,5.00,000.00,023.7,023.0,000.0,032.2,025.5,17.1,0003.3,0014.92,0006.82,0005.76
2024-03-20 21:45:00,SystemResetWarning,0825.8,5.00,000.00,023.8,023.1,000.0,032.2,025.5,17.3,0000.0,0015.41,0006.85,0005.76
2024-03-20 21:46:00,SystemResetWarning,0825.8,4.99,000.00,023.8,023.1,000.0,032.2,025.5,17.3,0000.8,0015.35,0006.87,0005.79
2024-03-20 21:47:00,SystemResetWarning,0825.8,5.00,000.00,023.8,023.1,000.0,032.2,025.5,17.7,0000.8,0015.68,0006.86,0005.80
2024-03-20 21:48:00,SystemResetWarning,0825.8,5.01,000.00,023.8,023.1,000.0,032.2,025.6,17.9,0000.0,0016.08,0006.88,0005.81
2024-03-20 21:49:00,SystemResetWarning,0825.9,5.01,000.00,023.8,023.1,000.0,032.2,025.6,17.6,0001.6,0016.62,0006.99,0005.83
2024-03-20 21:50:00,SystemResetWarning,0825.9,4.99,000.00,023.8,023.1,000.0,032.2,025.6,17.6,0000.9,0017.50,0007.03,0005.86
2024-03-20 21:51:00,SystemResetWarning,0825.9,4.99,000.00,023.8,023.1,000.0,032.2,025.6,17.6,0001.9,0018.19,0007.06,0005.89
2024-03-20 21:52:00,SystemResetWarning,0825.9,5.00,000.00,023.8,023.1,000.0,032.2,025.6,17.3,0002.5,0017.36,0007.08,0005.93
2024-03-20 21:53:00,SystemResetWarning,0825.9,5.01,000.00,023.8,023.1,000.0,032.2,025.6,17.4,0002.7,0017.08,0007.08,0005.94
2024-03-20 21:54:00,SystemResetWarning,0825.9,5.01,000.00,023.8,023.2,000.0,032.2,025.6,17.3,0002.8,0016.71,0007.08,0005.95
2024-03-20 21:55:00,SystemResetWarning,0825.9,5.00,000.00,023.8,023.1,000.0,032.3,025.6,17.0,0002.4,0016.51,0007.11,0005.99
2024-03-20 21:56:00,SystemResetWarning,0825.9,5.00,000.00,023.8,023.2,000.0,032.3,025.6,17.0,0003.5,0016.31,0007.15,0006.02
2024-03-20 21:57:00,SystemResetWarning,0825.8,4.99,000.00,023.9,023.2,000.0,032.3,025.6,16.9,0004.0,0016.20,0007.18,0006.03
2024-03-20 21:58:00,SystemResetWarning,0825.8,4.99,000.00,023.9,023.2,000.0,032.3,025.7,17.1,0004.5,0015.98,0007.15,0006.04
2024-03-20 21:59:00,SystemResetWarning,0825.8,5.00,000.00,023.9,023.2,000.0,032.3,025.7,17.2,0005.0,0015.58,0007.15,0006.06
